weather.gov     
National Weather Service

Terminal Aerodrome Forecast
NWS Homepage
This page is being discontinued on March 12, 2014.
The same data is available at this site. Please update your bookmarks.
Thank you, and we apologize for the inconvenience.
Please send an email to SR-SRH.Webmaster@noaa.gov with any concerns.


Current Version
Previous Version:    01  02  03  04  05  06  07  08  09  10  11  12  13  14  15  16  17  18  19  20  21  22  23  24  25  26  27  28  29  30  
   31  32  33  34  35  36  37  38  39  40  41  42  43  44  45  46  47  48  49  50  51  52  53  54  55  56  57  58  59  60  
[Printable]
832
FTUS41 KCTP 221120
TAFJST
TAF
KJST 221120Z 2212/2312 35008KT 6SM BR OVC007
     FM221500 33010G17KT 6SM BR OVC009
     FM222000 33012G22KT P6SM BKN012 OVC025
     FM230300 33010KT P6SM OVC020
     FM230700 32009KT P6SM VCSH OVC010=




832
FTUS41 KCTP 221120
TAFJST
TAF
KJST 221120Z 2212/2312 35008KT 6SM BR OVC007
     FM221500 33010G17KT 6SM BR OVC009
     FM222000 33012G22KT P6SM BKN012 OVC025
     FM230300 33010KT P6SM OVC020
     FM230700 32009KT P6SM VCSH OVC010=


U.S. Dept. of Commerce
NOAA National Weather Service
1325 East West Highway
Silver Spring, MD 20910
E-mail: w-nws.webmaster@noaa.gov
Page last modified: May 16, 2007
NATIONAL WEATHER SERVICE: for Safety, for Work, for Fun - FOR LIFE